Time,TemperatureF,DewpointF,PressureIn,WindDirection,WindDirectionDegrees,WindSpeedMPH,WindSpeedGustMPH,Humidity,HourlyPrecipIn,Conditions,Clouds,dailyrainin,SoftwareType,DateUTC
2016-09-26 00:14:00,66.0,60.0,30.19,SSE,157,2.0,4.0,79,-99.99,,,-99.99,,2016-09-26 04:14:00,
2016-09-26 01:36:00,66.0,58.0,-100.00,WSW,242,1.0,6.0,76,-99.99,,,-99.99,,2016-09-26 05:36:00,
2016-09-26 01:57:00,65.0,58.0,-100.00,North,356,1.0,-999.0,77,-99.99,,,-99.99,,2016-09-26 05:57:00,
2016-09-26 02:55:00,65.0,58.0,-100.00,West,269,1.0,2.0,78,-99.99,,,-99.99,,2016-09-26 06:55:00,
2016-09-26 03:29:00,65.0,58.0,30.18,SW,234,1.0,4.0,77,-99.99,,,-99.99,,2016-09-26 07:29:00,
2016-09-26 03:37:00,65.0,58.0,30.18,SW,234,1.0,4.0,77,-99.99,,,-99.99,,2016-09-26 07:37:00,
2016-09-26 03:56:00,65.0,58.0,-100.00,North,-9999,2.0,3.0,78,-99.99,,,-99.99,,2016-09-26 07:56:00,
2016-09-26 04:34:00,65.0,59.0,30.17,East,80,2.0,3.0,81,-99.99,,,-99.99,,2016-09-26 08:34:00,
2016-09-26 04:54:00,64.0,59.0,-100.00,North,-9999,2.0,-999.0,83,-99.99,,,-99.99,,2016-09-26 08:54:00,
2016-09-26 05:34:00,64.0,59.0,30.17,SE,125,2.0,4.0,84,-99.99,,,-99.99,,2016-09-26 09:34:00,
2016-09-26 06:37:00,64.0,59.0,30.17,SE,136,3.0,4.0,84,-99.99,,,-99.99,,2016-09-26 10:37:00,
2016-09-26 06:58:00,64.0,59.0,-100.00,SE,131,3.0,4.0,84,-99.99,,,-99.99,,2016-09-26 10:58:00,
2016-09-26 08:37:00,64.0,59.0,30.17,ESE,107,1.0,2.0,83,-99.99,,,-99.99,,2016-09-26 12:37:00,
2016-09-26 08:55:00,65.0,59.0,-100.00,North,-9999,1.0,2.0,81,-99.99,,,-99.99,,2016-09-26 12:55:00,
2016-09-26 09:37:00,65.0,59.0,30.18,SSE,153,1.0,2.0,78,-99.99,,,-99.99,,2016-09-26 13:37:00,
2016-09-26 09:55:00,65.0,59.0,-100.00,North,-9999,3.0,-999.0,78,-99.99,,,-99.99,,2016-09-26 13:55:00,
2016-09-26 10:54:00,67.0,59.0,-100.00,North,-9999,4.0,7.0,75,-99.99,,,-99.99,,2016-09-26 14:54:00,
2016-09-26 11:04:00,67.0,59.0,-100.00,North,-9999,4.0,7.0,75,-99.99,,,-99.99,,2016-09-26 15:04:00,
2016-09-26 11:54:00,69.0,58.0,-100.00,North,-9999,4.0,10.0,67,-99.99,,,-99.99,,2016-09-26 15:54:00,
2016-09-26 12:27:00,70.0,58.0,30.17,SSE,147,7.0,-999.0,64,-99.99,,,-99.99,,2016-09-26 16:27:00,
2016-09-26 15:39:00,74.0,59.0,30.10,SSW,197,3.0,7.0,59,-99.99,,,-99.99,,2016-09-26 19:39:00,
2016-09-26 16:34:00,74.0,60.0,30.08,South,190,2.0,5.0,60,-99.99,,,-99.99,,2016-09-26 20:34:00,
2016-09-26 16:47:00,74.0,60.0,-100.00,SE,129,1.0,2.0,62,-99.99,,,-99.99,,2016-09-26 20:47:00,
2016-09-26 16:54:00,74.0,60.0,-100.00,SE,129,1.0,2.0,62,-99.99,,,-99.99,,2016-09-26 20:54:00,
2016-09-26 18:27:00,72.0,62.0,30.06,South,172,2.0,5.0,71,-99.99,,,-99.99,,2016-09-26 22:27:00,
2016-09-26 18:58:00,72.0,62.0,-100.00,SE,138,1.0,3.0,72,-99.99,,,-99.99,,2016-09-26 22:58:00,
2016-09-26 19:36:00,71.0,63.0,30.06,SE,133,2.0,3.0,76,-99.99,,,-99.99,,2016-09-26 23:36:00,
2016-09-26 20:28:00,70.0,63.0,-100.00,East,90,0.0,1.0,78,-99.99,,,-99.99,,2016-09-27 00:28:00,
2016-09-26 20:41:00,70.0,63.0,-100.00,East,90,0.0,-999.0,78,-99.99,,,-99.99,,2016-09-27 00:41:00,
2016-09-26 20:57:00,70.0,64.0,-100.00,North,-9999,1.0,3.0,80,-99.99,,,-99.99,,2016-09-27 00:57:00,
2016-09-26 21:38:00,69.0,64.0,-100.00,East,79,1.0,2.0,81,-99.99,,,-99.99,,2016-09-27 01:38:00,
2016-09-26 22:56:00,70.0,64.0,-100.00,WSW,244,1.0,4.0,81,-99.99,,,-99.99,,2016-09-27 02:56:00,